{"data":{"norad_id":48997,"intl_designator":"2021-060AG","name":"ONEWEB-0279","alt_names":[],"object_type":"PAYLOAD","status":"ACTIVE","operator":null,"country":"UK","launch_date":"2021-07-01","launch_site_code":"VOSTO","launch_vehicle":null,"mission":null,"orbit_class":"UNKNOWN","rcs_meters":null,"size_class":null,"mass_kg":null,"dimensions":null,"purposes":["comms"],"wikipedia_slug":null,"has_3d_model":false,"image_url":null,"decayed_at":null,"tle_current":{"epoch":"2026-09-20T04:39:18.658080Z","epoch_age_seconds":48358,"freshness":"FRESH","line1":"1 48997U 21060AG  26263.19396595  .00000039  00000+0  67154-4 0  9990","line2":"2 48997  87.9157 209.9111 0002156  71.3968 288.7397 13.16593192252123","mean_motion":13.16593192,"eccentricity":0.0002156,"inclination_deg":87.9157,"raan_deg":209.9111,"arg_perigee_deg":71.3968,"mean_anomaly_deg":288.7397,"bstar":6.7154e-5,"rev_number":25212,"period_min":109.37319201936,"perigee_km":1196.1273889946,"apogee_km":1199.3941161055,"semimajor_km":7575.89775255,"source":"CELESTRAK","updated_at":"2026-09-20T09:00:44.629100Z"}}}